GFSSGP_sfc_wetblb_090.txt.gz
Wetbulb
74.73 74.57 73.91 69.53 58.80 54.25 47.63 53.93 58.26 57.78 58.13 61.54 62.61 60.14 58.92 60.43 58.01 52.10 68.82 72.13 73.64 74.92 76.39 76.92 77.97 76.70 76.95 76.71 76.62 76.26 76.38 76.20 75.53 75.58 76.34 76.44 76.58 76.30 76.12 76.26 76.46 76.49 76.45 76.27 75.78 75.23 76.06 74.98 74.79
74.58 74.25 70.83 66.01 54.80 45.35 48.01 54.66 55.71 58.79 62.42 63.40 64.58 63.63 62.78 61.51 66.66 67.55 68.59 73.73 74.61 75.82 76.44 76.39 78.07 77.90 77.17 76.81 76.58 76.34 76.26 76.29 75.85 75.61 75.90 76.49 76.34 76.22 76.39 76.29 76.12 76.39 76.21 76.11 75.12 74.59 75.26 75.45 75.01
74.74 73.16 64.75 61.26 56.49 46.17 48.52 56.12 58.43 62.15 64.89 63.84 62.56 65.19 64.63 62.86 67.49 68.24 71.42 74.29 75.06 75.28 75.92 76.47 78.70 78.67 77.78 77.10 76.74 76.42 76.42 76.28 76.25 75.73 76.15 76.02 76.03 76.12 75.94 76.54 76.05 76.00 76.51 75.86 74.73 75.20 76.16 75.17 75.64
70.73 69.96 67.08 58.41 53.48 57.04 53.95 57.90 61.27 61.82 63.26 64.80 64.36 61.59 66.02 69.18 68.28 69.91 73.82 74.58 74.55 75.02 75.61 77.52 79.02 78.63 78.06 77.20 76.87 76.37 76.38 76.58 76.34 75.98 76.17 76.51 76.42 76.86 75.74 76.33 76.21 76.37 76.02 75.72 75.29 75.75 75.91 75.59 75.57
66.71 64.63 55.07 53.45 53.68 57.98 56.24 60.75 62.54 60.60 61.59 63.57 64.48 61.09 62.78 68.47 70.98 72.95 73.84 74.45 73.57 74.64 75.33 76.65 78.87 78.94 78.55 77.80 76.84 76.57 76.67 76.83 76.61 76.21 76.43 76.03 76.38 75.79 76.12 76.13 76.31 76.17 75.85 75.44 75.01 75.78 75.97 75.73 75.80
61.89 61.67 51.68 49.91 54.00 54.99 57.98 61.07 61.68 61.22 63.65 64.18 62.88 61.62 62.80 69.08 70.65 72.27 73.44 72.99 74.00 74.19 75.19 76.19 78.13 78.77 78.27 77.28 77.10 76.81 76.83 77.08 76.91 76.35 76.68 76.55 76.08 76.38 76.15 76.14 76.09 75.89 76.30 75.38 74.90 75.72 75.77 75.76 75.59
63.18 59.54 54.61 55.41 53.23 54.39 56.91 62.39 60.42 60.66 62.80 62.95 65.26 59.78 62.54 66.35 70.48 72.08 72.11 72.01 73.26 74.29 75.45 75.48 75.96 76.87 77.85 77.39 77.28 77.03 77.18 77.32 76.56 76.64 76.62 76.23 76.23 76.19 76.24 76.50 75.97 76.11 76.38 74.97 74.73 75.01 75.46 75.40 75.15
64.61 60.08 58.51 56.01 54.49 54.94 57.38 59.91 61.53 62.94 62.37 67.45 66.61 59.87 60.16 65.75 70.52 70.53 69.94 70.56 71.60 73.63 74.28 74.03 74.82 75.46 75.44 75.33 77.35 77.32 77.70 76.95 76.76 77.13 76.95 76.72 76.38 76.31 76.09 75.94 75.83 76.24 75.93 75.35 75.36 74.87 75.35 75.12 75.15
67.63 57.75 54.75 56.44 57.63 58.31 56.66 56.99 63.44 65.34 64.33 65.86 66.19 64.97 65.93 68.46 69.16 68.19 68.95 69.54 70.92 72.44 72.94 73.46 73.62 73.12 73.78 74.23 75.91 77.59 77.11 77.09 77.05 76.49 75.98 76.03 74.17 74.60 75.19 75.74 75.88 75.79 75.81 76.11 75.52 76.08 75.41 75.79 75.32
60.56 54.57 56.95 60.38 61.13 59.88 61.16 58.79 60.39 62.90 63.02 64.01 64.31 66.72 68.18 68.07 67.20 67.06 66.99 67.24 68.63 70.13 71.83 73.15 73.17 72.53 73.37 74.94 75.03 75.08 75.23 75.28 74.85 74.85 74.23 74.04 73.52 73.45 74.88 75.60 75.76 75.71 76.13 76.28 76.06 76.10 76.15 75.66 74.07
61.69 56.44 59.94 60.81 61.88 61.30 55.79 58.31 60.86 59.89 60.25 63.09 62.53 64.76 66.70 66.56 66.59 66.81 66.88 67.46 67.96 69.44 71.23 72.84 73.14 72.69 73.19 74.01 73.74 74.44 73.62 73.69 73.53 74.03 73.87 73.64 73.55 73.64 74.65 73.74 74.71 74.80 75.26 75.10 75.74 75.07 75.21 73.94 73.23
55.58 60.60 61.48 57.02 53.70 51.16 55.55 58.86 58.40 61.84 62.36 65.30 65.79 66.39 66.78 66.00 66.13 66.50 66.74 67.68 68.14 68.33 70.03 72.29 73.00 72.62 72.84 73.23 73.49 73.82 73.39 72.86 72.61 73.09 73.48 72.94 72.20 72.21 71.45 71.61 72.72 73.34 74.04 73.62 73.33 74.12 74.60 73.92 73.59
54.36 56.08 56.21 54.54 51.77 51.50 55.23 57.94 59.17 59.75 63.50 66.60 66.45 66.33 66.58 66.68 66.79 67.60 67.95 68.49 68.50 67.61 69.28 71.10 72.26 72.52 72.68 72.32 73.18 73.26 73.51 73.07 72.62 72.57 73.06 73.29 72.56 71.54 70.39 71.04 71.61 72.39 73.37 73.67 73.07 73.15 73.22 73.69 73.47
57.71 55.25 53.54 51.61 51.81 53.40 57.06 58.27 59.69 60.87 65.22 65.13 65.69 64.66 65.74 66.94 67.39 67.70 68.01 68.04 68.50 68.97 68.95 70.27 71.52 72.32 72.35 72.26 72.50 72.38 72.94 72.97 72.56 72.80 72.39 72.95 72.86 71.76 70.84 70.72 71.10 72.10 72.68 73.43 73.11 72.86 72.83 72.56 73.02
54.31 47.69 49.88 50.46 50.75 50.64 53.61 52.10 57.33 61.59 65.12 63.83 64.31 64.98 65.49 66.14 67.87 67.99 68.80 68.82 69.57 70.11 70.16 70.53 70.74 71.84 71.69 71.59 72.52 72.62 72.89 73.05 72.03 72.14 72.31 71.72 71.94 71.12 70.86 70.38 70.80 71.82 72.30 72.69 72.82 72.18 72.37 71.84 71.95
46.31 45.16 44.52 49.65 50.38 51.28 50.39 45.44 52.61 58.18 62.78 62.93 64.01 64.70 65.01 65.28 66.35 68.47 69.67 70.08 70.58 70.64 70.47 71.37 72.10 71.98 71.88 71.63 72.38 73.22 73.18 73.18 72.80 72.59 72.21 70.79 70.79 71.04 70.29 69.91 70.25 71.43 71.96 71.68 71.81 71.63 71.15 71.13 71.36
43.17 41.44 42.85 46.43 50.64 49.80 48.56 45.76 51.16 53.45 59.47 62.15 63.89 64.12 65.05 65.25 65.58 66.87 68.91 69.95 70.55 70.91 70.77 71.05 71.96 71.89 71.77 72.03 72.36 72.93 73.02 72.06 72.71 72.60 71.48 70.54 69.87 70.91 70.32 69.96 70.20 70.91 70.57 70.89 71.09 70.23 71.26 70.36 70.56
42.95 40.15 41.06 42.59 47.86 48.03 46.56 46.20 48.86 52.06 59.51 61.19 63.21 63.76 64.25 64.62 65.54 66.77 67.64 68.97 69.42 70.62 71.02 71.13 71.74 71.84 71.69 71.42 71.74 72.02 72.02 71.36 71.96 71.97 71.94 71.36 70.44 69.67 68.78 68.38 68.74 69.82 70.32 70.39 70.42 70.07 70.16 70.60 69.91
45.93 43.01 43.07 44.63 48.05 45.74 44.96 45.72 48.05 49.67 56.94 59.21 61.02 62.59 63.29 64.51 66.51 67.40 68.00 68.87 68.59 68.72 69.74 70.33 70.61 71.33 71.24 70.90 70.51 70.06 70.46 69.78 69.58 69.91 71.73 72.01 72.01 71.26 70.02 69.01 68.49 68.76 69.35 70.09 70.52 70.09 69.35 69.40 69.88
45.03 42.40 41.62 44.49 47.28 45.16 44.53 45.86 48.60 48.54 54.72 59.54 60.82 61.41 62.63 63.09 64.66 66.04 67.42 68.40 68.58 68.02 68.86 70.10 70.45 70.90 71.46 71.58 71.32 70.61 69.39 69.34 70.07 69.82 69.47 69.99 70.76 71.85 71.26 69.92 69.51 69.31 68.90 69.40 69.65 70.07 69.04 69.83 69.76
43.84 41.49 42.18 42.99 45.60 45.03 44.38 42.42 44.49 47.86 51.77 58.10 60.51 62.08 62.73 63.20 63.15 65.07 66.41 67.72 68.72 68.25 68.95 69.69 70.38 70.81 71.60 72.02 70.81 69.28 69.52 69.28 69.08 69.17 68.96 69.79 71.44 72.03 71.53 70.32 70.25 69.51 69.73 68.90 69.55 69.73 69.37 68.34 68.74
42.48 48.19 47.31 45.03 42.00 38.93 43.59 37.85 41.90 45.00 45.68 48.22 55.68 59.57 62.05 63.05 64.23 65.13 66.12 67.06 68.18 68.69 69.28 70.23 70.67 70.84 71.60 71.94 71.20 69.99 68.91 68.74 69.67 69.24 70.34 70.79 71.69 72.30 71.86 71.08 70.56 69.80 69.35 69.29 69.71 69.69 69.77 69.24 67.89
47.01 49.05 47.11 45.64 40.53 37.27 39.50 36.37 40.76 42.80 44.21 45.68 47.58 51.01 57.78 62.52 63.83 63.64 65.99 67.13 68.60 69.46 69.12 70.05 70.76 71.02 71.90 72.20 71.77 70.67 69.19 68.65 67.91 68.72 68.83 69.75 71.63 72.16 71.92 71.36 70.47 69.78 69.17 69.53 69.49 68.79 68.14 68.27 67.89
50.02 45.64 41.95 38.16 36.18 33.27 38.74 37.71 37.54 41.26 44.90 46.53 49.85 51.44 53.82 55.62 62.27 64.52 66.04 67.20 68.06 69.26 69.35 70.06 70.44 71.36 72.39 72.30 71.95 70.75 68.34 68.18 68.16 68.54 69.69 69.38 70.03 70.76 71.29 71.54 70.34 70.01 69.51 69.31 69.38 69.60 68.99 68.11 68.27
45.08 40.10 33.85 32.90 32.65 33.92 36.62 36.10 39.45 44.76 46.44 47.81 48.95 50.59 51.68 57.24 58.31 62.73 64.26 65.67 67.52 67.96 68.94 69.89 70.67 71.42 71.96 72.03 71.45 69.82 69.08 69.26 69.15 68.65 68.25 68.25 68.54 68.86 69.22 70.19 69.51 69.26 69.53 69.44 69.42 69.04 68.83 68.23 66.85
41.93 40.76 36.70 30.61 30.70 35.68 38.41 36.11 41.88 46.92 48.43 48.92 49.60 50.19 51.00 58.30 61.11 63.43 64.33 66.67 67.52 68.48 69.16 70.21 71.03 71.60 71.49 71.63 70.48 70.83 70.12 69.29 68.74 68.91 69.35 68.68 68.32 69.56 69.64 69.99 69.40 70.09 69.64 69.85 69.28 68.93 68.63 68.72 68.65
43.47 40.76 43.28 38.00 32.76 32.93 36.10 39.90 44.93 47.50 48.58 51.28 56.13 54.03 53.74 59.96 61.51 63.45 65.10 67.35 67.97 68.75 69.66 70.84 71.59 71.83 71.55 71.41 71.06 69.13 68.88 67.46 67.28 67.12 68.43 70.45 69.91 69.38 69.23 69.30 69.31 69.67 70.19 70.16 69.33 68.52 67.41 67.89 68.23
45.44 46.37 40.10 38.45 32.23 30.77 35.02 36.45 38.62 44.52 47.28 54.86 61.81 58.73 60.58 62.09 63.54 65.49 67.70 68.52 69.35 70.30 71.17 71.98 71.95 71.56 71.45 70.91 70.43 68.74 66.83 66.54 65.30 66.88 68.67 70.36 70.12 69.87 69.25 68.87 69.10 69.41 69.53 70.09 69.87 68.97 68.97 68.32 67.89
42.37 39.91 37.36 38.72 37.29 33.48 31.16 36.16 42.87 44.81 52.74 56.73 63.43 64.56 65.15 66.88 68.00 69.35 70.33 70.03 70.31 69.52 70.03 69.84 70.21 70.66 70.14 69.32 69.19 67.19 66.25 66.12 66.07 66.55 69.83 70.55 69.52 69.01 68.67 68.74 68.63 68.46 68.55 69.31 69.36 68.23 67.98 67.35 67.73
43.91 41.70 41.97 38.19 34.17 33.30 33.85 37.24 49.70 54.92 55.58 63.38 65.40 66.11 66.61 67.26 67.43 67.98 68.26 68.56 68.51 68.46 67.39 67.99 68.35 68.62 68.46 69.08 69.05 66.98 66.93 67.69 67.60 69.77 70.28 69.72 69.12 68.15 68.01 68.00 67.79 68.03 68.32 68.15 68.03 68.06 68.34 67.78 67.37

GFSSGP_sfc_wetblb_096.txt.gz
Wetbulb
75.72 76.07 76.18 72.42 65.49 63.68 55.59 57.89 61.29 59.91 59.41 65.31 66.06 63.70 62.62 64.09 61.41 60.90 73.65 75.11 74.98 75.43 76.81 77.42 77.38 77.48 77.00 77.01 77.62 76.81 76.79 76.90 76.80 76.90 76.90 76.84 76.93 76.87 76.33 76.39 76.66 76.69 76.39 76.50 76.52 76.49 76.54 76.33 76.44
76.07 74.67 73.52 68.62 62.94 53.90 54.98 59.89 59.65 62.63 63.39 65.77 65.69 64.97 63.28 63.08 68.84 71.01 72.19 75.04 75.43 75.76 76.83 76.66 77.29 77.29 77.78 77.79 77.73 77.82 76.99 76.83 76.47 76.59 76.48 76.65 76.38 76.53 76.13 76.48 76.67 76.57 76.44 75.92 76.42 76.44 76.08 76.12 75.70
75.07 74.66 69.36 67.79 61.52 55.36 55.87 60.06 62.51 64.66 65.64 64.32 63.56 66.73 65.10 65.46 70.14 71.54 74.49 75.28 75.80 76.20 76.50 77.20 77.94 77.74 77.22 77.66 77.83 77.49 76.55 76.30 76.81 76.78 76.97 76.55 76.12 76.11 76.04 76.37 75.85 76.13 75.81 75.62 76.28 75.42 75.28 75.28 75.87
73.89 72.52 71.35 64.21 57.94 60.81 59.73 61.77 64.16 64.62 66.25 66.51 64.56 63.33 68.50 71.82 71.57 73.26 75.13 75.38 75.94 76.25 76.52 77.18 77.83 77.98 77.31 77.03 77.07 77.24 77.03 75.92 76.26 76.36 76.58 76.56 76.57 76.45 76.47 76.19 76.12 76.41 75.84 75.09 75.53 75.90 75.70 75.89 76.06
74.36 71.38 64.36 59.73 59.08 60.77 63.34 64.59 65.06 63.57 64.51 65.09 64.53 62.78 65.83 71.92 73.92 74.98 74.98 75.55 75.57 76.06 76.83 77.94 78.02 77.99 77.85 77.04 76.85 76.79 76.84 76.13 76.20 76.29 76.54 76.41 76.36 76.08 75.95 76.36 76.53 76.05 76.03 75.26 75.72 75.73 76.06 75.56 75.31
69.55 69.33 61.45 57.94 58.79 61.24 63.55 64.38 65.61 64.66 65.64 66.29 64.35 64.22 67.01 73.64 74.09 74.95 75.57 75.74 76.18 75.92 76.72 77.81 78.02 78.12 77.81 77.06 76.81 76.79 76.96 76.82 76.29 76.83 76.84 76.75 76.64 76.13 75.96 76.32 76.32 75.76 75.48 75.59 76.14 75.84 76.20 75.78 76.05
68.99 67.68 60.22 58.54 57.84 59.62 61.18 64.83 63.99 64.53 65.03 65.05 66.97 62.82 68.57 71.49 74.84 75.68 75.90 75.82 75.99 76.38 76.54 77.72 78.02 77.84 77.62 77.39 77.07 77.05 77.31 77.06 76.73 76.87 76.62 76.70 76.40 76.43 76.65 76.39 76.42 76.12 75.59 75.23 76.15 76.35 76.20 76.08 76.02
71.26 68.91 60.50 59.95 57.15 57.45 61.90 62.28 64.59 63.92 64.87 69.63 69.20 63.19 64.94 71.31 75.27 76.11 76.54 75.85 75.66 75.99 76.38 76.97 78.01 78.08 77.88 76.87 77.71 77.36 77.79 77.14 77.12 77.22 76.96 76.75 76.55 76.37 76.19 76.51 76.45 76.58 75.96 75.12 75.93 76.40 76.15 76.04 75.45
73.19 65.29 60.12 58.52 57.62 58.87 62.19 60.72 62.96 66.83 66.15 68.71 69.46 68.01 68.98 73.10 75.20 74.80 75.18 75.07 74.94 75.14 75.95 76.78 76.75 77.72 77.98 77.57 76.79 77.55 76.97 77.38 77.01 77.39 76.75 76.98 77.65 77.19 77.02 76.82 76.35 76.13 75.96 75.01 75.31 75.97 75.87 75.62 75.08
69.18 63.14 61.06 62.78 62.92 62.03 62.66 61.63 60.84 61.79 65.21 67.39 68.68 70.23 71.37 73.59 73.67 72.59 72.77 72.74 73.35 73.83 75.14 76.03 76.41 77.07 77.35 76.58 77.68 77.39 77.25 77.88 77.09 78.29 77.90 77.47 77.01 77.20 77.01 76.86 75.97 76.30 76.10 75.34 75.40 75.31 75.54 75.42 75.18
66.58 63.09 64.42 64.50 65.52 65.14 62.70 60.57 61.35 60.40 62.28 67.10 67.88 69.87 71.54 72.19 72.65 71.67 71.99 72.56 73.03 74.03 74.87 75.63 76.04 77.00 76.85 76.06 76.56 75.87 76.63 76.73 77.64 78.23 77.61 77.58 76.91 76.87 75.81 76.64 75.88 76.43 76.34 76.19 75.77 76.34 74.78 74.44 74.11
62.73 64.42 65.23 65.10 65.50 64.45 61.44 61.63 60.42 61.40 63.59 67.88 69.42 71.53 72.13 71.28 71.57 71.43 71.57 71.91 72.77 73.62 74.28 75.59 76.21 76.42 76.32 75.87 76.00 76.62 75.96 76.94 77.19 77.43 77.76 77.13 76.42 76.23 76.12 76.02 76.78 77.18 78.35 76.48 75.89 74.30 74.26 74.16 74.36
61.02 62.11 62.59 64.30 63.72 63.57 61.40 60.28 61.04 61.98 64.13 68.10 69.68 71.69 71.54 71.71 71.17 72.45 72.54 72.82 73.47 73.48 74.54 75.53 76.41 76.80 76.77 76.72 76.28 76.44 75.79 76.43 77.24 77.44 77.67 77.02 76.09 76.02 76.08 76.17 75.44 75.72 76.43 78.68 77.11 75.74 74.58 75.08 74.20
58.43 58.61 60.39 62.23 61.79 62.63 60.18 60.26 61.38 62.79 65.37 66.94 69.29 70.38 71.58 71.72 71.09 72.08 72.60 72.13 72.85 73.98 74.59 75.65 76.18 76.81 76.88 76.54 76.93 76.10 75.95 76.21 76.43 76.42 76.66 77.88 76.77 76.85 75.52 75.51 74.25 76.52 77.60 78.02 75.63 77.62 75.05 74.37 73.88
59.21 56.45 57.11 57.38 58.70 59.77 60.97 58.12 59.19 63.12 65.34 65.98 68.25 69.58 70.85 71.88 71.82 71.26 72.94 72.83 73.11 74.07 74.96 75.20 76.13 76.59 76.55 76.84 76.70 76.32 75.99 76.05 75.42 75.58 77.53 77.75 77.56 77.61 77.68 75.71 74.62 75.50 76.90 78.48 76.63 77.37 75.86 74.90 74.21
55.70 56.88 53.60 55.83 57.49 58.72 57.76 54.92 60.57 61.38 61.67 62.84 62.64 65.67 68.89 71.44 71.87 72.08 73.04 73.99 74.08 74.45 74.91 75.80 75.80 76.21 76.46 76.53 76.38 75.96 75.73 75.76 75.65 75.42 76.07 77.37 77.74 77.51 77.32 77.10 75.31 75.73 75.99 77.73 75.80 76.56 75.23 74.44 74.05
54.12 50.30 51.71 54.35 57.66 56.83 56.65 54.78 59.38 60.24 59.28 59.16 60.09 61.76 66.34 70.12 72.17 72.90 73.04 73.87 74.65 75.33 75.91 75.95 76.58 75.70 76.35 76.77 76.54 76.46 76.77 75.88 75.83 76.36 76.05 76.70 77.01 77.04 76.97 76.96 75.51 76.97 75.61 75.77 76.60 76.72 75.31 73.90 73.69
50.03 51.04 52.26 52.09 55.85 56.73 55.00 54.43 57.02 58.89 59.09 58.78 59.83 60.88 64.45 68.78 71.39 73.11 73.32 73.68 74.91 75.70 76.31 76.69 76.67 76.83 77.13 76.83 76.75 75.84 75.37 75.85 76.31 76.63 76.94 77.33 76.09 77.29 77.19 78.64 78.11 76.37 74.77 74.62 74.81 75.22 75.28 74.47 74.13
52.66 51.85 51.48 53.61 56.24 55.54 54.99 55.33 56.00 57.84 57.79 58.06 59.82 60.77 63.19 68.78 71.61 73.52 73.68 73.82 74.27 75.41 75.98 76.53 76.59 78.21 76.74 75.85 75.17 74.48 73.45 74.93 76.04 76.87 77.80 78.12 77.52 77.38 78.27 76.02 77.68 77.03 75.29 75.04 75.76 75.24 74.59 73.64 74.54
52.52 50.94 50.63 53.54 55.93 56.10 55.02 53.98 56.10 57.40 57.74 58.17 59.20 60.13 62.30 68.03 70.40 72.22 73.50 73.96 74.02 74.77 75.92 77.25 77.14 78.10 77.57 76.78 77.57 76.37 75.42 75.35 76.39 77.15 78.30 77.67 77.35 77.91 77.33 77.17 77.33 77.09 77.77 75.34 75.16 75.52 73.47 73.03 74.44
51.10 50.62 51.37 51.03 54.24 56.10 55.00 53.38 54.70 56.41 57.31 58.54 59.39 60.81 62.68 67.85 69.99 71.62 72.17 73.39 74.12 74.44 75.55 76.78 78.07 78.66 78.55 79.54 77.40 77.06 77.26 76.81 75.90 76.78 77.00 77.80 77.68 77.91 78.00 77.31 76.91 77.07 76.27 77.37 75.64 75.66 74.72 72.65 74.44
49.34 52.87 52.24 52.40 51.75 48.84 54.63 47.68 54.03 55.27 55.75 57.42 58.53 59.47 61.75 66.99 70.50 72.03 72.40 72.73 73.56 74.44 76.06 78.07 78.77 79.28 78.72 79.45 78.53 78.67 75.46 74.59 75.56 76.34 76.78 77.25 77.96 77.73 77.61 77.48 77.01 76.76 77.55 76.85 77.13 76.64 76.48 76.06 73.80
50.25 53.31 52.53 53.33 52.27 51.69 51.63 49.90 52.45 54.83 53.86 55.82 57.87 59.29 60.61 65.68 69.08 70.87 72.64 73.11 73.99 74.63 75.14 77.61 77.92 79.66 80.32 80.14 79.68 77.52 77.06 75.85 76.31 76.91 77.43 77.79 78.04 77.53 75.59 76.79 76.61 75.92 75.64 76.64 76.37 75.43 74.98 75.14 74.67
53.95 52.66 53.69 53.56 51.55 46.45 50.83 49.96 50.31 52.28 54.18 56.19 58.24 59.20 59.93 60.63 64.73 69.93 72.30 73.96 74.12 74.73 74.66 76.11 77.88 79.58 80.11 79.33 78.34 79.60 79.11 77.64 76.27 76.28 75.64 78.08 76.79 76.36 76.10 77.18 77.29 76.79 76.66 76.59 76.64 75.31 74.45 74.37 74.57
51.78 50.45 45.01 43.42 43.84 43.75 50.33 49.51 51.01 54.35 55.78 56.90 57.88 59.32 60.14 60.70 61.58 64.78 69.42 71.75 73.48 74.09 74.99 74.96 77.70 77.87 78.27 77.57 78.07 77.88 77.96 78.43 77.49 77.50 78.48 75.08 73.12 74.45 76.40 76.92 76.88 76.81 76.82 76.99 76.71 76.13 74.75 74.27 74.08
50.39 50.25 44.73 38.33 39.24 43.99 51.02 46.64 50.45 56.14 57.43 58.20 58.37 59.50 61.84 62.04 62.35 63.67 63.98 68.28 72.40 73.41 75.82 75.13 76.44 77.28 77.48 77.36 78.24 78.58 78.74 77.63 77.28 78.19 77.01 74.71 72.42 72.62 74.89 75.75 76.62 76.32 75.92 75.31 76.22 76.51 73.92 74.80 74.84
50.35 46.75 51.67 46.72 48.31 45.00 47.00 51.30 54.74 55.63 56.57 58.52 60.73 64.63 67.70 69.97 70.36 70.02 68.98 67.00 71.04 73.19 74.31 75.26 76.03 77.14 77.17 77.33 77.84 78.23 78.21 78.21 77.95 78.51 78.13 75.23 75.30 73.55 75.14 76.72 76.27 75.94 75.61 75.02 75.46 75.96 73.56 75.03 75.11
51.79 52.75 47.30 47.82 41.07 40.65 43.89 47.77 49.08 53.80 55.33 57.97 61.08 66.03 69.85 71.04 70.88 69.95 69.32 69.11 70.98 73.37 74.44 75.33 76.11 76.62 76.97 77.37 77.80 77.83 78.10 78.55 78.68 78.55 76.79 75.34 74.93 76.14 76.09 76.56 76.54 75.94 75.21 74.72 74.86 75.89 74.83 74.00 75.69
50.73 49.35 49.81 48.98 47.66 43.40 42.88 46.23 55.29 55.54 56.79 59.99 64.53 68.54 70.75 71.19 71.50 70.41 70.86 71.59 72.58 73.54 74.26 74.95 75.76 76.40 76.80 77.67 77.80 77.98 77.91 78.41 78.65 77.47 75.68 74.87 75.89 76.61 76.48 76.31 75.92 75.27 74.98 74.39 74.11 74.43 73.91 73.30 73.37
53.77 51.75 51.53 46.69 45.86 48.34 47.42 46.79 55.45 57.72 59.83 65.60 66.78 69.57 70.32 70.24 71.93 72.39 72.13 72.70 72.81 73.27 74.36 74.83 75.99 76.48 76.73 77.81 77.98 77.74 78.27 78.43 77.35 75.39 74.68 74.92 75.89 76.69 76.63 75.88 75.38 74.90 74.70 74.81 74.14 73.28 73.21 72.68 72.22

GFSSGP_sfc_wetblb_099.txt.gz
Wetbulb
75.87 76.05 75.78 73.00 66.08 64.92 56.51 57.10 60.78 59.51 61.13 64.23 64.57 63.94 63.19 64.20 64.03 60.18 73.25 74.18 75.11 75.66 76.80 77.42 78.05 78.09 77.33 77.31 77.38 77.34 77.41 76.79 76.89 77.18 76.55 76.77 76.50 76.92 76.29 75.94 76.21 76.32 76.76 76.58 76.55 76.46 76.94 76.74 76.67
76.74 75.87 75.25 70.79 63.90 55.10 55.98 60.36 59.67 62.03 64.02 65.37 65.02 64.67 62.91 63.80 69.73 70.85 72.17 74.58 75.24 75.82 76.50 76.39 77.84 77.93 77.53 77.41 77.42 77.33 77.21 76.99 76.79 77.02 77.03 76.92 76.89 76.30 76.05 76.02 76.60 76.18 76.30 76.95 76.73 76.69 76.47 76.38 76.79
76.85 75.91 70.97 69.03 59.52 55.86 56.42 60.53 62.87 64.18 65.62 64.42 63.72 65.56 64.98 66.01 70.21 71.78 74.60 74.76 75.58 75.94 76.07 77.00 78.15 77.98 77.23 77.42 77.82 77.41 77.50 76.83 76.64 76.48 76.51 76.52 76.27 76.16 76.08 75.99 76.35 76.21 76.25 76.28 76.52 76.25 76.22 75.55 76.16
74.68 74.04 72.68 65.97 57.96 59.39 60.37 62.18 63.40 63.57 65.38 65.30 64.90 63.44 68.17 71.45 71.25 73.39 74.87 75.06 75.24 75.43 76.41 77.11 78.05 77.72 77.10 77.16 77.40 76.94 76.82 77.09 77.08 76.71 77.12 76.71 76.22 76.04 76.15 76.17 76.36 76.05 75.55 75.61 76.17 75.52 75.49 76.03 76.39
74.88 72.03 65.23 61.22 58.71 61.04 62.54 64.00 64.43 62.99 64.06 64.17 64.87 64.08 66.64 71.38 73.89 74.18 74.55 75.12 75.02 75.06 77.74 76.91 78.13 78.21 77.86 77.00 77.02 76.70 76.14 76.09 76.36 76.79 76.80 76.59 76.65 76.70 76.46 76.18 76.52 76.36 75.39 75.19 75.92 76.22 75.89 76.28 76.10
70.69 71.27 63.00 57.97 58.89 61.14 63.07 64.55 64.19 64.00 65.14 65.92 64.00 65.39 67.46 72.89 73.30 73.68 74.75 75.21 75.47 75.71 77.46 76.61 77.94 78.45 78.07 76.89 76.77 77.03 76.73 76.20 76.15 76.43 76.84 76.46 76.33 76.46 76.46 76.73 76.60 76.25 75.50 75.97 75.77 76.00 75.75 75.61 75.33
69.47 68.11 62.89 58.97 58.27 59.99 61.42 64.93 63.31 63.31 64.25 64.34 65.00 63.78 68.83 70.77 73.87 74.50 74.85 75.48 75.44 75.64 76.87 76.66 77.20 77.32 77.34 77.12 77.03 76.94 77.15 76.61 76.46 76.67 76.46 76.69 76.91 76.50 76.12 76.73 76.14 76.34 75.53 76.16 76.30 75.92 76.33 76.02 76.21
71.86 69.07 62.81 59.89 57.59 58.25 62.67 63.09 64.63 64.46 65.89 69.30 66.59 63.23 66.46 71.25 74.24 74.87 75.12 75.20 75.32 75.48 76.59 76.91 77.62 77.57 77.47 76.83 77.98 77.63 77.28 77.36 76.68 76.93 76.95 76.64 76.22 76.88 76.85 76.78 76.35 76.36 75.50 75.75 76.33 76.56 75.93 76.13 75.81
73.18 66.56 59.90 60.52 58.74 59.70 63.27 62.15 64.16 67.01 66.85 68.64 68.93 67.04 69.40 73.58 74.28 74.20 73.77 74.00 74.63 74.69 75.75 76.51 77.03 77.82 78.48 77.40 76.81 77.47 77.16 76.98 77.03 76.52 76.88 76.66 76.69 76.63 76.56 76.57 76.78 76.65 76.02 75.25 76.20 76.67 76.50 76.10 75.43
67.87 63.79 61.65 63.54 63.90 62.62 63.54 62.60 62.19 62.06 64.77 67.99 68.90 70.57 70.62 73.21 73.16 72.90 72.89 72.42 73.22 73.64 74.69 75.71 76.58 76.92 77.47 76.69 77.63 76.93 76.77 77.03 77.04 77.40 77.42 76.94 75.33 77.45 75.49 76.69 76.41 76.39 76.29 74.97 75.72 76.28 76.19 75.91 74.64
66.44 62.81 64.23 64.74 65.48 65.64 64.25 62.50 63.19 61.67 61.39 65.66 68.30 70.08 70.72 71.85 72.15 72.58 73.19 73.16 73.09 74.19 74.51 75.34 75.81 77.54 76.33 76.32 76.75 76.31 76.40 76.68 77.05 78.03 77.69 77.03 75.64 77.39 76.40 76.31 75.96 76.63 76.36 75.22 74.85 75.21 74.89 74.49 74.17
61.70 64.00 64.56 63.95 65.14 64.96 63.57 64.84 61.59 62.45 62.66 66.24 69.80 71.99 71.39 71.35 71.03 71.94 72.53 72.95 73.40 73.85 74.58 75.06 75.88 77.09 76.46 76.62 75.94 75.94 75.83 76.53 77.30 77.30 78.60 77.89 75.97 76.19 75.69 75.12 76.67 76.90 77.36 76.33 74.56 73.64 73.23 73.50 73.81
59.03 60.08 61.58 62.71 63.32 63.83 64.68 62.86 61.63 62.10 64.55 65.75 68.79 71.35 71.68 71.81 71.42 71.96 72.71 73.29 73.99 73.46 74.28 75.27 76.26 78.61 78.84 78.24 76.20 77.13 76.38 76.01 76.77 77.07 78.19 76.93 75.76 76.95 75.79 76.43 75.83 75.85 76.58 76.60 75.98 75.30 74.61 74.35 73.61
59.10 58.37 58.31 59.07 59.62 62.36 62.12 62.33 62.49 62.87 64.85 64.84 68.32 70.20 71.89 72.04 71.85 71.66 71.92 72.23 73.13 74.05 74.35 75.45 76.12 78.05 77.69 78.28 79.62 78.06 76.69 76.78 77.00 76.61 77.27 78.29 76.68 78.36 75.98 76.56 75.14 76.69 75.00 76.33 76.89 75.89 75.39 75.15 73.88
60.16 56.85 58.12 58.63 58.14 57.41 60.58 59.63 60.40 63.38 64.26 63.86 67.26 69.59 71.45 72.19 72.76 71.94 71.94 72.45 73.42 74.28 75.41 75.75 76.55 77.34 77.78 78.56 77.79 77.68 76.39 76.41 76.62 76.43 79.94 78.59 78.65 77.88 78.23 75.69 75.74 74.73 76.38 77.29 79.01 76.95 75.47 74.38 73.82
56.96 56.79 52.66 57.00 58.78 57.94 57.77 55.58 60.95 63.57 63.38 63.49 64.48 66.11 68.34 70.98 72.56 72.88 72.92 72.92 73.97 74.64 76.47 76.75 76.77 77.05 77.09 78.35 77.63 76.79 76.20 76.03 75.88 75.83 76.48 78.83 79.08 78.04 77.22 75.83 74.89 74.72 75.13 75.98 76.19 76.13 75.34 73.95 73.26
54.58 51.19 52.36 54.04 58.23 57.86 57.02 55.61 60.37 62.98 62.70 61.67 62.55 62.96 62.90 66.13 71.75 73.66 73.19 73.50 73.45 76.25 77.50 77.92 78.43 76.70 77.17 78.57 77.35 77.92 79.22 76.37 75.47 75.75 75.48 78.66 77.81 77.20 76.84 76.12 74.07 78.89 74.48 75.20 75.21 76.55 74.88 74.36 74.41
50.55 51.76 52.96 53.02 56.03 56.58 55.73 55.75 58.04 60.58 61.06 60.93 61.44 62.50 63.17 63.09 68.21 73.19 73.43 73.93 74.13 75.10 77.79 78.79 78.02 79.21 79.70 77.94 78.51 76.41 75.51 75.58 75.74 75.53 75.48 78.57 76.94 77.49 77.13 76.51 77.84 75.52 74.42 74.11 73.84 75.22 75.29 74.72 74.28
53.70 52.43 51.42 53.63 56.45 55.60 55.31 55.91 57.33 58.97 59.06 59.16 60.47 62.12 62.59 63.58 66.14 72.86 73.75 73.92 74.24 74.77 77.40 78.83 78.70 79.55 78.43 76.70 75.41 75.28 73.70 74.57 74.87 76.31 78.30 78.29 77.83 76.56 78.76 76.77 76.97 78.12 76.55 76.37 77.41 75.25 75.54 73.33 74.39
52.81 51.52 51.60 54.13 55.40 54.59 54.17 54.75 57.52 58.81 58.58 58.88 58.79 59.64 61.34 62.94 64.65 71.16 73.78 74.11 73.82 75.13 77.77 79.02 79.14 79.86 79.09 77.58 77.74 76.80 76.36 74.46 74.70 76.27 78.00 78.14 77.71 78.21 78.20 77.50 76.15 77.05 75.81 76.61 77.55 76.65 74.80 73.29 73.88
51.75 50.66 51.12 51.11 53.74 54.89 54.08 52.88 55.67 57.80 58.76 59.54 59.90 60.37 60.56 62.08 63.56 70.60 73.31 74.83 73.78 75.71 77.70 78.49 79.72 80.17 79.44 79.19 78.72 79.06 78.01 77.25 74.85 75.52 76.45 78.08 77.96 78.50 78.90 77.22 77.61 78.89 77.64 75.73 77.33 76.73 74.52 72.75 73.78
50.15 53.69 52.83 51.90 51.01 47.74 54.08 47.19 54.04 56.41 57.14 58.37 58.88 59.43 59.83 61.28 63.76 70.43 73.20 74.10 74.05 74.69 76.65 78.98 80.27 80.51 80.31 80.79 78.22 78.15 75.39 74.11 74.86 75.99 76.71 77.68 78.26 78.38 77.88 78.18 78.48 79.00 77.56 77.20 75.94 76.81 75.83 76.52 71.99
50.74 53.28 51.98 52.06 51.09 50.91 50.76 48.61 52.35 55.79 55.82 56.87 57.93 59.45 60.41 61.89 63.84 69.61 73.01 74.01 74.87 75.15 76.59 78.59 80.42 80.64 80.57 80.37 79.25 78.04 77.46 75.99 76.43 76.16 79.39 80.49 78.97 75.84 76.05 77.98 78.31 78.21 75.52 77.88 77.77 76.91 75.21 75.32 74.51
54.27 52.56 52.75 52.74 50.66 45.62 50.42 49.83 50.12 52.52 54.60 57.32 58.40 59.45 60.35 61.77 64.66 69.52 73.38 74.44 75.52 75.68 76.20 77.74 80.34 80.26 81.27 81.24 80.68 79.75 78.62 78.23 75.70 76.99 76.20 77.64 77.41 77.05 75.96 74.98 78.16 78.21 77.62 77.19 77.17 77.21 76.23 75.71 76.12
52.02 50.30 45.70 44.67 44.69 43.47 49.95 48.03 50.73 55.02 56.77 57.56 57.87 59.35 60.84 61.88 62.65 67.92 70.13 73.37 74.46 75.79 76.53 77.81 80.04 79.78 80.93 80.90 80.06 81.17 81.07 80.59 80.90 80.86 79.33 76.85 75.75 78.34 74.77 77.66 77.57 77.25 78.36 77.52 78.23 76.12 73.96 75.61 75.19
51.58 51.06 46.44 41.17 41.58 44.90 50.22 46.77 50.77 56.30 58.26 58.47 58.87 59.91 61.16 61.43 61.67 62.18 67.01 71.76 73.96 74.22 77.21 77.82 79.37 79.92 80.65 80.51 80.62 80.85 81.56 78.57 78.28 79.44 76.37 75.91 75.52 74.72 74.97 75.39 75.72 76.85 77.22 76.92 77.49 76.92 74.76 75.64 76.52
51.65 49.39 53.17 48.08 48.81 45.75 46.72 51.77 54.49 56.57 57.31 57.82 59.21 61.02 65.14 68.91 70.40 70.75 70.17 68.63 72.88 75.19 76.78 77.35 79.17 79.95 80.45 80.34 80.76 80.92 81.16 80.65 79.06 81.54 79.95 77.64 77.83 75.08 75.20 75.29 76.16 76.96 76.52 76.80 76.92 76.87 75.38 75.92 75.87
52.72 53.66 47.94 49.18 40.31 41.74 46.51 46.37 48.59 54.19 53.15 57.12 57.82 62.75 67.85 70.20 71.15 72.22 71.83 71.15 71.06 71.85 75.78 77.75 78.20 79.36 79.07 78.81 80.01 79.90 80.28 80.28 81.03 81.21 79.81 78.68 76.88 75.96 76.01 75.98 75.90 76.36 76.22 76.08 76.34 76.43 75.65 74.80 75.38
51.28 50.85 51.82 50.49 48.47 44.33 41.20 46.16 53.50 55.01 56.98 58.25 59.42 66.15 69.63 71.24 72.29 73.02 72.26 71.64 70.57 69.79 73.88 76.20 77.67 78.15 78.77 79.21 79.62 80.37 79.62 80.08 79.57 79.04 78.95 77.16 77.09 76.76 76.75 76.72 76.19 75.76 75.92 76.05 75.39 75.05 74.70 73.68 73.97
54.74 53.18 52.84 47.29 47.27 49.15 48.00 48.24 55.57 56.51 56.52 61.41 64.62 67.58 71.29 72.13 72.35 73.78 74.19 73.31 72.53 72.11 73.62 74.55 77.47 78.02 79.11 79.64 80.25 79.62 79.10 79.15 78.84 79.02 78.49 76.93 76.26 76.80 76.89 76.72 75.78 75.04 74.64 75.57 75.14 73.66 73.54 73.02 72.81

GFSSGP_sfc_wetblb_102.txt.gz
Wetbulb
75.33 75.05 74.90 71.97 63.97 64.53 55.13 56.03 60.64 59.62 60.22 63.04 63.50 62.12 62.22 65.32 61.16 58.29 71.95 74.43 74.65 74.16 75.45 76.41 78.12 78.54 78.16 78.50 78.18 78.05 77.63 76.93 76.96 77.37 76.72 76.78 77.02 76.92 76.46 76.69 76.90 76.96 76.75 76.64 77.01 76.76 76.97 76.73 76.45
75.01 74.95 73.61 69.61 62.84 55.21 54.93 59.33 59.22 61.51 63.22 64.52 63.82 63.41 63.98 64.03 68.38 69.28 70.63 75.16 74.63 74.96 75.46 75.80 77.90 78.25 78.16 78.17 78.15 78.07 77.11 76.92 77.09 77.20 76.79 76.96 76.98 76.42 76.12 76.44 76.65 76.73 76.65 76.60 76.82 76.89 76.97 77.02 76.30
74.20 75.74 69.07 67.21 62.96 54.86 55.19 60.49 62.05 63.43 64.16 63.82 63.47 65.47 65.52 65.10 69.59 70.65 73.05 75.12 75.04 74.81 74.66 75.94 78.41 78.30 77.44 77.81 77.94 77.98 77.72 77.41 77.01 77.24 76.98 77.10 76.88 76.33 76.37 76.80 76.40 76.78 76.97 76.68 76.52 76.75 76.45 76.67 76.51
74.58 73.34 71.20 65.06 60.01 58.56 59.49 61.21 61.75 62.04 63.54 64.41 64.77 64.44 67.34 70.79 70.52 72.23 73.49 74.59 74.97 74.35 75.04 76.96 78.39 77.52 77.53 78.01 77.70 77.61 77.03 77.11 77.07 77.19 76.77 76.54 76.46 76.19 76.51 76.21 76.43 76.39 75.92 76.84 76.18 76.12 75.68 76.37 76.46
73.90 71.07 63.12 59.32 58.44 59.82 61.79 63.21 63.59 62.00 63.51 63.46 65.19 63.65 65.51 70.86 73.37 73.13 73.42 74.07 73.82 74.68 75.80 76.26 78.06 78.19 78.19 78.15 77.84 77.40 77.14 77.12 76.79 77.23 76.72 76.61 76.40 76.19 76.62 76.23 76.49 75.92 75.59 76.61 76.51 75.48 76.69 76.65 76.24
69.24 67.13 54.66 58.02 58.81 60.42 62.17 63.63 64.17 63.25 64.50 64.46 65.06 65.39 66.45 72.03 71.74 72.58 73.62 73.88 75.58 75.64 75.00 75.48 78.00 78.39 78.23 77.56 77.11 76.63 76.01 76.13 76.45 76.87 76.92 76.77 76.82 76.86 76.67 76.35 76.75 76.30 75.71 76.64 76.58 76.17 76.51 76.30 75.61
68.40 57.97 55.32 57.32 59.64 58.77 61.08 64.30 62.21 63.13 63.14 62.17 66.28 64.96 67.66 70.18 72.06 73.26 74.47 74.11 75.78 76.30 75.15 75.58 75.92 77.01 77.24 77.01 77.09 77.36 76.58 76.10 76.38 76.35 76.70 76.69 76.35 76.65 76.82 77.20 76.58 76.48 75.81 76.48 76.72 76.31 76.09 75.62 75.37
70.87 68.09 56.84 57.65 56.12 59.05 61.33 62.63 64.11 64.54 63.59 65.93 66.87 64.52 64.91 70.25 72.42 73.00 74.04 74.53 76.20 75.84 75.00 75.20 76.08 76.29 76.49 76.01 77.79 77.79 77.82 76.48 76.46 76.82 76.50 76.91 76.88 76.82 76.46 77.36 76.89 76.69 75.82 76.69 76.59 76.34 76.38 76.58 76.32
71.59 63.81 54.34 54.56 57.32 59.13 63.48 61.48 63.42 65.59 67.01 67.02 66.06 67.54 70.02 72.08 72.68 72.10 72.18 72.78 74.22 75.59 75.20 75.28 75.86 76.43 76.66 76.42 76.40 77.75 77.38 77.42 76.64 76.95 77.05 76.74 75.08 76.32 76.12 77.13 76.86 76.68 75.57 76.23 76.89 76.45 76.96 76.82 75.93
65.96 61.72 56.92 60.51 60.96 59.95 64.58 62.44 62.02 61.45 65.91 66.39 66.46 68.35 71.24 71.80 72.07 70.71 70.77 70.83 71.84 72.53 74.55 75.47 75.84 76.53 76.75 75.35 76.57 76.19 76.48 75.87 76.12 76.17 76.73 75.92 76.01 76.52 75.51 76.57 77.06 77.09 76.19 75.46 76.44 77.33 76.84 76.20 74.03
64.21 60.91 63.44 63.48 63.01 64.52 63.52 63.46 64.41 61.01 60.39 66.51 61.95 67.33 70.26 70.53 71.80 71.55 71.20 71.97 72.28 73.27 74.03 75.30 75.87 76.59 76.14 75.81 76.40 75.67 75.81 76.11 76.21 76.94 76.94 76.43 74.33 75.19 74.76 75.55 75.51 75.91 76.31 73.51 75.56 75.86 75.12 74.60 73.97
59.30 61.46 62.09 62.15 63.10 62.66 61.85 64.17 62.88 61.84 61.98 66.36 65.41 66.95 70.38 69.64 70.27 71.79 72.04 72.41 72.55 73.08 73.63 74.47 76.95 76.75 76.41 76.49 75.94 75.97 75.40 75.14 75.93 76.41 77.00 77.57 73.69 74.88 75.61 74.93 75.47 76.03 76.32 75.13 72.27 73.10 73.57 73.40 73.62
58.85 59.10 59.47 60.05 60.05 59.48 61.00 61.02 62.63 62.50 63.52 65.69 69.58 69.47 70.20 69.92 70.52 72.44 73.00 73.41 73.27 73.11 73.97 74.46 77.42 76.56 76.55 77.05 76.19 76.10 74.00 75.72 75.76 77.04 77.35 76.79 75.87 73.86 76.06 74.48 75.68 75.57 75.22 75.45 73.60 72.94 72.08 72.39 73.54
60.36 59.03 58.16 58.17 57.98 58.18 56.60 58.12 61.88 63.19 64.50 64.11 66.63 70.48 70.26 70.87 70.57 71.49 72.55 72.99 73.18 73.85 74.26 75.56 76.44 77.62 76.56 77.52 79.35 76.97 78.11 74.41 76.76 76.76 76.62 78.15 78.96 75.50 76.78 74.04 75.24 75.20 75.61 75.96 75.57 75.18 73.96 74.29 73.36
59.61 56.55 58.33 58.64 58.83 57.99 58.92 54.81 55.48 62.14 64.11 63.03 66.22 68.46 71.17 72.21 71.92 71.42 72.44 72.91 73.92 74.24 74.69 75.28 75.99 77.24 78.13 78.63 79.45 79.27 78.38 76.29 73.67 74.64 75.06 77.22 78.44 78.53 78.67 77.12 76.89 75.75 74.94 75.41 75.23 75.01 75.72 76.09 74.42
56.15 55.10 51.35 56.06 57.63 57.35 57.62 53.21 56.63 60.76 62.53 63.07 63.52 66.57 69.83 71.74 72.20 72.63 72.78 73.40 74.59 74.47 74.39 75.86 75.76 76.41 76.81 77.78 77.82 77.90 76.62 77.97 77.32 76.97 74.78 77.41 78.62 78.75 78.74 77.10 76.37 75.68 74.09 72.77 74.21 74.36 73.99 74.73 74.10
52.27 48.41 50.45 52.93 57.50 56.70 56.12 54.21 57.35 60.06 61.67 62.44 63.64 65.09 66.42 69.46 72.36 73.60 73.08 73.13 73.91 75.06 75.39 75.91 76.10 76.13 76.40 77.53 77.40 77.34 77.67 77.38 75.84 77.14 76.52 77.60 77.50 77.62 77.60 75.94 75.93 72.34 72.80 74.02 73.75 74.33 73.66 73.07 74.26
48.41 49.68 51.28 51.40 54.94 55.68 54.84 54.50 56.98 59.01 59.29 60.90 61.98 62.97 64.34 64.21 68.35 73.46 73.18 72.91 74.05 75.67 76.44 76.70 76.74 77.15 77.26 77.23 77.11 75.97 76.03 75.85 76.19 75.54 75.30 77.56 76.69 77.60 77.20 76.47 76.44 72.11 71.50 73.05 74.41 73.12 74.07 73.79 73.15
52.44 51.32 50.81 53.24 55.76 54.32 53.59 54.95 56.18 58.53 58.92 58.36 60.29 62.30 63.21 63.72 65.29 72.36 73.50 73.58 73.54 75.48 76.11 76.43 76.65 77.52 76.71 76.02 74.77 74.82 73.63 74.37 74.68 75.45 77.11 77.16 76.84 76.28 76.27 76.02 75.96 71.06 69.19 73.00 74.11 73.76 72.30 71.98 73.67
52.67 50.87 50.32 52.63 54.41 53.54 53.25 53.17 55.67 56.84 57.93 58.98 59.09 60.18 60.60 60.52 63.96 68.74 73.45 73.39 73.18 74.50 75.68 76.34 76.67 77.44 77.02 76.42 75.91 76.01 74.95 74.76 74.81 75.13 77.91 77.09 76.88 77.18 75.43 76.29 75.26 74.91 73.57 73.89 74.64 73.56 72.56 72.52 73.34
51.06 49.68 50.24 50.06 52.87 53.72 52.50 51.24 54.27 56.26 57.32 58.80 60.12 61.36 61.00 61.36 61.63 66.15 72.77 72.80 73.40 73.34 75.29 75.87 76.69 77.18 77.50 77.09 76.89 76.80 76.73 75.95 74.03 74.51 77.29 77.50 77.21 77.29 76.62 76.62 76.04 74.95 75.61 74.41 74.10 75.08 72.76 71.07 73.14
48.53 52.48 51.89 51.34 49.88 46.39 52.83 46.26 54.14 54.52 56.03 57.88 59.70 59.74 60.34 61.46 62.75 65.46 72.77 72.87 73.20 73.88 75.77 76.61 77.20 77.70 77.90 77.93 76.46 75.83 74.65 72.72 73.80 74.01 75.97 76.41 77.99 77.31 77.04 76.48 76.11 75.48 76.24 74.05 74.51 75.24 74.32 72.53 71.11
50.23 52.98 51.52 50.92 49.34 48.82 49.29 46.90 51.05 55.65 55.50 57.23 57.79 60.07 59.96 61.86 61.87 62.45 73.01 73.36 73.68 74.76 75.09 76.68 77.69 77.95 78.00 77.66 77.16 76.34 75.09 75.16 75.41 75.00 75.59 77.75 77.14 76.92 76.84 76.42 75.86 74.64 75.50 75.24 74.58 75.86 74.72 73.25 71.88
53.73 51.87 51.60 51.56 50.25 45.29 49.53 48.81 48.93 51.60 53.99 55.98 57.90 59.49 61.45 61.00 62.25 63.32 73.73 74.72 74.09 75.07 75.71 76.77 77.44 77.80 78.43 77.41 78.02 76.83 76.07 76.14 75.18 75.30 76.36 76.43 76.63 76.75 76.94 74.13 73.61 72.08 73.09 74.03 75.61 76.03 75.42 73.35 73.29
52.16 49.45 44.50 44.22 44.36 43.70 50.41 48.38 51.06 55.10 56.20 57.34 57.61 58.31 60.07 61.56 63.19 63.65 72.78 73.85 74.08 74.19 75.19 75.90 77.35 77.61 78.35 77.84 77.14 77.89 77.25 77.08 78.17 78.51 77.08 76.39 75.71 76.65 75.67 74.54 72.52 71.28 73.48 74.81 75.96 75.83 75.42 73.45 72.09
50.65 49.99 45.13 40.82 41.69 43.77 50.65 46.17 50.01 56.72 57.90 58.87 59.64 59.79 60.51 62.91 67.94 67.22 73.28 73.74 74.23 74.73 75.25 75.58 76.73 77.49 78.26 78.45 77.48 78.50 78.14 77.35 77.63 79.14 77.46 76.34 76.04 76.67 77.01 74.91 74.36 74.69 75.76 75.51 75.73 75.72 74.69 74.35 72.86
50.69 48.24 52.09 48.01 48.20 44.81 47.46 51.02 54.36 56.77 56.21 57.34 58.24 59.51 60.27 61.46 67.92 69.98 71.27 73.87 74.35 74.51 75.26 75.72 76.17 78.08 78.33 78.56 78.71 77.10 79.01 79.41 77.46 79.20 78.74 76.93 78.10 76.41 75.59 75.04 74.98 75.40 75.82 76.48 76.64 75.59 75.06 75.18 74.23
52.67 53.70 46.89 47.89 42.61 41.29 45.61 46.50 48.53 53.65 55.31 57.29 58.54 58.29 57.50 57.77 59.30 64.66 71.32 71.97 74.51 74.68 75.47 76.22 76.98 78.15 78.60 78.73 78.97 78.48 78.73 78.61 79.53 79.57 78.06 77.62 78.48 77.93 75.18 74.98 75.42 75.97 76.61 76.53 76.59 75.22 75.13 74.28 73.86
52.34 51.63 51.98 51.21 48.83 43.15 43.23 45.85 54.30 55.42 58.22 57.86 54.92 54.64 54.99 56.98 58.79 61.70 73.98 74.67 72.82 74.10 74.94 76.08 76.71 78.41 78.39 78.79 78.87 78.84 78.18 79.55 79.07 79.58 78.39 78.93 77.18 76.63 75.77 75.53 75.74 75.95 75.99 76.13 75.99 75.34 74.59 73.86 73.35
54.05 53.21 52.88 47.97 45.99 48.37 47.18 46.97 56.92 56.55 58.74 58.42 57.19 56.44 56.52 59.06 57.90 71.75 73.49 73.57 75.15 73.35 73.92 75.80 76.13 78.15 78.55 79.07 78.65 78.65 79.32 79.22 78.48 79.30 79.11 78.77 76.34 76.54 77.00 77.35 76.92 76.43 75.57 75.64 75.00 74.06 73.59 73.12 72.62